Wind_Speed
5 2 7 5 4 7 8 6 6 1 1 3 5 5 6 7 9 16 22 25 30 33 32 31 32 32 32 32 34 34 31 28 26 23 24 24 22 19 17 14 13 12 11 9
5 12 6 5 3 7 6 7 3 2 4 4 2 8 6 7 9 20 25 27 26 26 27 32 36 35 34 33 36 37 34 30 27 25 23 23 21 19 16 13 11 9 6 2
11 2 5 3 5 8 3 8 5 6 4 3 1 7 4 7 16 20 24 26 25 27 27 26 31 34 33 34 36 35 33 30 27 24 24 24 22 19 15 12 8 6 4 3
1 3 7 2 4 5 5 4 6 10 5 4 2 5 5 5 9 7 28 30 31 28 25 24 26 31 34 35 33 31 28 26 24 23 24 23 19 16 13 11 8 7 6 5
4 8 13 7 3 3 3 6 6 5 6 4 1 1 7 1 6 9 20 29 29 27 27 26 26 29 33 32 31 28 26 24 23 23 22 21 19 16 14 11 10 9 7 5
2 1 3 6 4 3 11 7 8 5 3 1 6 6 5 5 9 5 2 11 14 23 24 26 29 29 30 30 28 26 23 21 20 21 22 22 19 17 14 12 11 9 7 4
3 3 1 4 11 4 2 6 3 2 2 4 2 2 7 4 6 4 7 10 10 15 22 25 29 30 29 28 27 25 21 19 19 21 21 20 18 15 12 11 11 8 6 3
4 3 4 2 6 9 7 6 6 7 4 3 1 7 6 4 7 10 9 13 14 14 16 21 25 27 28 27 26 24 20 18 19 20 20 20 17 14 13 12 11 8 5 4
5 1 3 3 2 4 5 4 4 7 2 3 4 7 9 3 5 3 10 16 16 16 15 16 19 22 25 25 24 20 19 20 20 20 20 20 17 16 14 13 11 8 7 6
4 5 2 1 2 5 3 8 4 3 4 3 4 5 5 5 7 6 8 17 17 15 14 15 17 20 22 22 21 21 21 19 19 20 20 18 17 16 15 13 11 10 9 7
2 3 1 3 3 5 3 4 4 4 4 5 1 6 6 6 8 11 15 21 19 17 16 16 17 19 20 21 23 22 21 20 20 20 19 18 17 16 15 13 12 11 10 8
5 4 4 2 3 3 1 5 5 6 5 1 3 6 0 5 8 14 17 19 18 18 17 17 17 19 22 22 23 22 21 21 20 19 18 18 18 17 15 14 13 12 10 9
7 2 4 3 5 3 3 3 4 5 3 6 5 6 2 3 2 9 16 18 18 18 19 19 20 21 19 19 19 20 21 20 19 19 19 20 19 17 15 15 14 13 13 11
7 4 5 8 3 7 6 6 5 5 4 5 7 3 4 6 6 7 12 14 15 17 19 20 20 20 18 19 19 20 21 21 21 21 21 21 19 17 17 16 15 16 15 12
5 3 1 2 1 3 6 12 14 15 12 10 6 10 8 8 10 15 15 14 16 19 21 22 22 20 20 21 21 21 21 22 22 23 23 22 20 20 19 17 18 17 16 13
4 3 3 2 2 5 3 10 18 20 13 11 1 6 6 12 8 8 18 20 22 22 23 22 22 21 22 23 23 22 23 23 24 25 24 22 22 21 20 20 20 19 18 15
6 5 3 3 3 3 7 14 12 9 14 13 17 15 6 4 11 21 26 23 24 25 22 22 24 24 23 24 23 24 24 25 27 27 25 23 23 23 21 21 21 21 19 16
5 6 2 3 1 4 5 2 10 18 13 22 16 6 17 25 30 26 21 18 24 24 22 22 23 23 21 22 23 22 24 26 28 28 26 24 23 22 22 23 22 22 22 18
5 4 2 4 3 6 6 5 7 10 15 15 19 20 20 23 20 26 33 31 30 29 28 24 20 20 21 22 23 24 26 28 31 28 24 23 22 21 23 25 24 24 24 21
6 6 3 3 5 8 5 1 8 6 8 5 17 16 19 14 11 11 25 29 26 21 21 25 21 20 20 20 22 24 26 29 30 28 23 21 20 22 24 25 25 26 26 22
3 4 9 4 3 8 5 1 7 5 5 1 2 11 16 9 14 5 6 14 18 17 22 22 20 19 18 17 19 23 25 28 27 26 23 22 22 23 23 25 26 27 27 25
5 4 3 3 2 7 8 4 7 4 3 3 1 2 5 15 9 14 10 8 12 14 16 14 18 17 17 16 16 20 22 23 24 25 25 25 24 25 26 27 27 28 28 28
3 4 3 5 4 2 8 1 10 1 0 0 2 2 1 4 6 7 8 8 8 7 8 11 13 15 15 14 12 14 17 20 22 23 25 25 26 28 27 26 26 28 29 30
2 3 3 3 3 4 19 16 13 6 5 6 2 2 5 9 12 12 11 12 11 11 9 8 8 10 12 13 13 13 14 17 20 22 23 22 20 20 20 21 23 26 29 32
3 7 4 3 6 14 7 12 13 13 11 8 5 4 7 13 15 13 12 12 12 10 9 9 7 6 7 7 8 10 12 13 13 14 16 16 17 18 19 20 23 26 28 28
8 6 4 5 13 7 12 15 21 14 12 12 7 8 13 12 11 13 14 14 13 10 9 8 7 4 3 4 7 9 11 13 15 17 19 21 21 22 23 24 25 26 27 29
Wind_Direction
133 130 224 190 154 141 125 114 124 64 54 155 193 255 237 199 207 212 208 210 216 223 224 224 224 223 224 224 222 219 217 217 220 226 230 234 239 241 245 250 263 275 283 291
117 215 236 157 123 119 113 123 109 63 24 81 171 256 267 242 236 221 215 217 219 223 227 226 227 227 226 226 217 215 216 220 222 229 236 233 234 238 242 250 266 276 280 285
183 303 193 166 115 112 83 146 166 146 124 59 77 298 234 255 241 242 237 234 230 229 229 225 222 222 219 212 207 210 212 216 222 228 231 230 230 234 239 250 257 259 242 233
136 15 149 8 154 125 135 159 122 131 111 185 30 258 266 238 250 235 245 241 237 235 231 226 217 209 203 200 201 206 214 221 228 238 237 236 240 241 240 244 244 234 222 224
147 163 155 216 206 158 118 99 108 103 90 96 298 94 266 9 261 241 241 243 239 230 228 219 211 203 198 199 205 211 219 228 235 236 233 232 230 231 237 239 228 217 215 220
74 155 135 173 48 103 143 90 53 57 80 331 208 162 260 196 213 257 225 233 231 218 216 213 206 201 201 204 210 219 226 231 236 233 229 227 229 233 237 232 217 210 207 210
356 340 293 157 92 33 80 119 35 22 354 220 6 195 253 243 247 248 272 221 193 196 207 211 208 207 210 215 218 222 224 229 232 230 226 225 224 226 229 220 210 202 199 207
147 180 194 167 141 169 173 163 154 177 201 195 110 229 241 208 275 259 262 194 178 181 191 204 211 214 216 218 220 223 225 229 231 226 221 218 218 219 213 207 202 195 201 218
139 327 350 60 80 166 186 176 127 103 37 68 220 292 292 248 252 193 162 175 183 189 197 203 208 213 214 216 218 221 224 227 225 221 216 214 215 210 205 200 194 200 211 225
149 112 341 68 141 41 151 147 80 15 129 257 264 275 244 239 235 213 195 199 193 193 198 203 206 207 209 213 217 221 224 224 222 216 214 212 210 201 194 192 200 210 219 230
107 69 89 72 290 162 121 146 70 119 147 175 219 258 221 228 212 203 210 207 204 207 209 210 205 206 211 218 222 225 225 218 211 210 210 207 202 195 192 199 212 219 225 228
172 119 118 148 345 306 355 167 160 191 202 205 147 272 194 269 263 219 216 218 221 221 216 209 210 215 220 223 225 224 216 209 206 207 205 199 194 193 200 211 222 229 229 229
171 106 97 47 339 344 224 185 129 110 84 193 159 253 325 312 284 211 218 217 213 209 205 206 209 213 216 217 213 209 205 205 205 203 199 195 193 200 210 222 228 231 231 233
125 153 167 189 182 137 190 180 170 147 184 155 216 285 271 245 237 225 215 213 215 211 209 210 211 212 212 212 209 205 203 203 204 201 197 196 201 210 221 229 232 231 231 231
108 196 160 44 127 168 179 188 190 207 197 198 188 210 255 227 220 224 222 217 215 213 213 215 215 213 212 211 210 208 208 207 204 201 199 202 210 219 228 234 237 234 233 235
136 171 127 348 36 183 251 222 212 213 217 239 306 262 241 270 214 201 223 219 220 221 221 221 220 217 218 218 215 213 212 211 207 203 204 211 221 230 236 239 238 236 235 236
142 125 93 246 353 100 296 227 209 224 217 209 231 224 228 223 215 220 220 225 229 233 231 225 224 220 222 223 221 219 215 210 207 206 212 221 231 237 241 243 241 239 239 240
136 120 84 150 50 249 266 329 207 204 219 221 237 206 216 231 241 241 238 236 237 239 239 235 231 228 229 231 230 225 220 214 209 212 220 228 237 242 245 246 246 243 241 242
186 125 125 155 219 293 278 194 160 181 243 224 228 235 235 243 254 255 254 254 251 254 262 255 243 231 231 232 230 227 221 214 215 219 223 233 243 251 252 254 253 247 245 243
206 171 165 139 181 218 249 310 149 125 276 225 216 229 226 196 238 253 252 250 247 243 242 236 235 229 228 234 233 229 223 219 217 218 226 239 249 258 261 262 259 253 249 245
168 155 190 163 229 284 242 159 150 118 231 174 234 248 233 198 225 240 245 239 230 231 232 231 230 227 224 231 231 226 223 220 222 228 236 247 255 262 269 266 261 257 252 247
164 176 161 106 150 263 164 115 170 223 172 172 209 300 231 221 226 231 230 217 223 219 218 221 216 212 216 224 229 229 230 231 236 243 250 257 265 268 273 269 259 256 252 249
190 189 172 189 217 315 221 348 221 312 133 184 359 26 54 179 209 190 183 178 168 169 192 202 203 208 211 224 228 230 234 244 249 255 263 267 267 270 270 262 258 255 253 254
202 180 144 22 303 315 321 300 270 264 321 325 283 121 122 144 143 138 139 140 143 147 152 162 191 207 213 223 228 233 242 249 255 262 268 271 274 273 271 267 261 256 255 257
181 140 183 241 298 302 317 6 333 289 275 259 247 181 156 159 157 155 148 147 145 141 145 139 144 171 180 203 219 231 239 248 258 268 274 277 281 284 279 271 265 262 262 264
191 177 178 224 178 177 278 313 304 304 248 260 249 210 186 171 169 161 157 151 144 144 142 144 156 185 195 238 259 266 270 278 282 282 286 286 283 278 272 267 265 265 265 264
Height
1493 1497 1499 1491 1488 1489 1497 1506 1514 1518 1516 1517 1521 1521 1518 1517 1519 1520 1522 1524 1525 1527 1531 1533 1536 1538 1541 1545 1548 1550 1553 1556 1558 1560 1562 1563 1564 1565 1566 1567 1566 1566 1564 1563
1491 1490 1492 1485 1488 1489 1497 1510 1518 1518 1517 1517 1523 1523 1519 1517 1516 1516 1519 1520 1521 1523 1525 1527 1529 1533 1536 1540 1544 1547 1550 1554 1556 1557 1559 1560 1561 1562 1563 1564 1564 1563 1562 1561
1481 1486 1487 1487 1489 1493 1501 1508 1517 1515 1521 1524 1523 1525 1518 1513 1512 1514 1514 1516 1518 1519 1521 1522 1524 1528 1532 1536 1540 1544 1548 1551 1552 1554 1555 1557 1558 1559 1561 1562 1561 1560 1560 1560
1488 1488 1488 1489 1491 1494 1504 1502 1509 1517 1521 1533 1528 1538 1519 1513 1511 1509 1508 1510 1511 1515 1517 1519 1521 1525 1529 1534 1539 1543 1546 1548 1549 1551 1553 1554 1556 1557 1558 1559 1559 1559 1558 1558
1491 1492 1492 1496 1493 1494 1505 1504 1511 1520 1527 1530 1532 1539 1518 1512 1509 1505 1500 1502 1506 1510 1513 1517 1520 1523 1527 1532 1536 1539 1542 1545 1546 1548 1550 1552 1553 1554 1555 1556 1557 1557 1557 1558
1488 1488 1490 1492 1495 1494 1501 1510 1519 1526 1530 1550 1529 1533 1522 1513 1504 1497 1496 1498 1500 1505 1511 1516 1519 1522 1526 1529 1533 1536 1538 1541 1543 1545 1547 1548 1550 1552 1553 1554 1555 1556 1556 1557
1489 1489 1488 1488 1496 1502 1504 1508 1540 1541 1560 1541 1536 1535 1509 1500 1498 1497 1496 1497 1500 1503 1507 1513 1517 1520 1524 1527 1530 1532 1535 1537 1539 1542 1544 1547 1548 1550 1552 1553 1554 1555 1556 1557
1486 1497 1486 1487 1488 1496 1503 1502 1526 1530 1542 1532 1537 1527 1505 1495 1495 1495 1495 1497 1500 1502 1505 1509 1514 1518 1521 1525 1527 1529 1531 1534 1536 1538 1541 1544 1546 1548 1550 1552 1553 1554 1555 1555
1489 1489 1487 1485 1487 1489 1500 1504 1507 1530 1564 1542 1530 1515 1499 1494 1494 1494 1494 1496 1498 1501 1504 1507 1511 1515 1518 1521 1524 1527 1529 1530 1532 1535 1538 1541 1543 1546 1548 1550 1552 1553 1553 1553
1474 1489 1490 1489 1489 1492 1491 1499 1513 1532 1549 1543 1525 1522 1504 1495 1493 1495 1495 1495 1497 1500 1501 1504 1507 1511 1515 1518 1521 1523 1524 1527 1530 1533 1536 1539 1541 1544 1546 1548 1550 1550 1551 1551
1471 1477 1497 1491 1492 1492 1497 1500 1508 1511 1524 1524 1533 1506 1490 1487 1487 1487 1489 1492 1494 1497 1499 1501 1504 1509 1512 1514 1516 1518 1521 1523 1526 1530 1533 1536 1540 1543 1545 1547 1548 1548 1549 1550
1471 1484 1493 1497 1495 1495 1492 1496 1497 1498 1520 1534 1530 1508 1484 1484 1482 1484 1486 1489 1492 1494 1496 1498 1502 1505 1507 1509 1512 1514 1517 1520 1524 1527 1531 1535 1538 1541 1544 1545 1547 1548 1548 1548
1467 1486 1499 1504 1501 1497 1497 1497 1501 1505 1510 1515 1519 1497 1484 1482 1482 1482 1485 1487 1489 1491 1493 1496 1498 1501 1504 1506 1508 1511 1515 1519 1522 1525 1529 1533 1536 1539 1541 1543 1544 1545 1545 1546
1462 1476 1480 1481 1479 1486 1497 1495 1497 1496 1514 1507 1502 1490 1483 1483 1484 1482 1483 1485 1488 1490 1492 1494 1496 1498 1501 1503 1506 1508 1512 1515 1519 1522 1526 1530 1533 1536 1538 1538 1540 1541 1542 1542
1465 1480 1479 1479 1479 1481 1483 1485 1489 1488 1487 1489 1485 1492 1483 1481 1480 1480 1483 1485 1486 1487 1489 1491 1493 1495 1497 1500 1503 1506 1510 1513 1516 1519 1523 1526 1530 1532 1534 1536 1538 1538 1538 1540
1466 1481 1479 1493 1483 1483 1482 1481 1476 1477 1482 1485 1487 1489 1480 1475 1476 1479 1481 1482 1481 1483 1484 1487 1490 1492 1494 1496 1499 1503 1507 1510 1513 1516 1520 1523 1525 1528 1529 1531 1532 1534 1535 1536
1465 1477 1488 1499 1491 1484 1492 1472 1476 1476 1475 1476 1479 1473 1472 1474 1475 1474 1474 1476 1477 1478 1480 1482 1484 1486 1490 1492 1495 1498 1502 1507 1509 1513 1515 1519 1522 1524 1525 1527 1528 1530 1531 1533
1464 1472 1485 1501 1497 1491 1461 1458 1456 1462 1463 1463 1461 1464 1463 1464 1465 1467 1469 1470 1472 1474 1475 1478 1481 1484 1488 1490 1493 1496 1500 1503 1505 1509 1511 1515 1518 1519 1522 1523 1522 1525 1527 1528
1463 1468 1487 1488 1508 1473 1457 1458 1460 1463 1455 1456 1456 1456 1458 1460 1462 1459 1464 1467 1468 1470 1472 1475 1477 1480 1483 1485 1489 1492 1495 1498 1503 1505 1508 1512 1514 1516 1518 1518 1519 1521 1522 1523
1462 1465 1471 1500 1487 1482 1455 1448 1449 1453 1455 1444 1445 1446 1449 1457 1460 1454 1457 1459 1460 1462 1465 1467 1472 1475 1478 1482 1486 1488 1491 1495 1498 1500 1505 1509 1510 1512 1512 1513 1514 1516 1517 1518
1462 1465 1464 1482 1483 1470 1449 1451 1452 1466 1454 1443 1443 1443 1445 1450 1448 1450 1451 1451 1454 1455 1459 1463 1468 1472 1476 1479 1481 1485 1489 1490 1494 1498 1501 1504 1506 1507 1508 1508 1508 1510 1511 1512
1455 1457 1461 1479 1481 1471 1449 1452 1455 1446 1442 1441 1441 1442 1440 1443 1447 1447 1449 1450 1452 1451 1455 1458 1464 1468 1473 1476 1479 1483 1486 1489 1492 1494 1497 1499 1500 1502 1503 1502 1502 1504 1505 1506
1454 1453 1457 1463 1459 1448 1447 1444 1445 1444 1441 1440 1440 1439 1438 1440 1443 1444 1446 1447 1450 1453 1456 1458 1462 1467 1469 1475 1476 1480 1483 1486 1488 1490 1493 1493 1491 1492 1492 1493 1494 1495 1497 1497
1452 1453 1457 1458 1451 1448 1446 1448 1448 1445 1443 1442 1442 1442 1441 1441 1443 1445 1448 1449 1451 1454 1458 1460 1464 1466 1468 1473 1474 1476 1479 1483 1485 1485 1487 1488 1487 1485 1484 1485 1486 1486 1488 1488
1449 1451 1452 1453 1447 1446 1446 1445 1444 1444 1445 1444 1444 1442 1442 1443 1445 1445 1447 1451 1453 1454 1458 1459 1464 1469 1469 1472 1473 1475 1476 1478 1479 1481 1483 1482 1482 1482 1482 1480 1480 1479 1481 1482
1442 1443 1446 1442 1439 1442 1442 1444 1443 1442 1443 1445 1443 1445 1446 1444 1444 1446 1450 1451 1452 1457 1459 1460 1463 1469 1470 1472 1473 1473 1473 1476 1475 1475 1476 1477 1475 1474 1474 1473 1473 1472 1474 1474